When you browse on this site, cookies collect data to enhance your experience and personalize the content and advertising you see.
Visit our Privacy Policy to learn more. By continuing to use the site, you agree to this use of cookies and data.
  • In Czech Republic
  • List of Countries
  • For 7 days
  • Water Temperature
  • Satellite Maps
  • Weather Map
  • Weather Widgets
  • user-avatar
    Login

    Hourly Weather Halifax

    Today, 21 June, Friday

    Time Temperature Precipitation Wind Pressure Humidity
    00:00 +13°C° 0 mm 3 mps 749 mmHg 94%
    01:00 +14°C° 0 mm 3 mps 748 mmHg 95%
    02:00 +14°C° 0 mm 3 mps 748 mmHg 97%
    03:00 +15°C° 0.1 mm 2 mps 747 mmHg 98%
    04:00 +15°C° 0.1 mm 2 mps 747 mmHg 98%
    05:00 +15°C° 0.1 mm 2 mps 747 mmHg 99%
    06:00 +16°C° 0.9 mm 2 mps 746 mmHg 99%
    07:00 +16°C° 0.9 mm 2 mps 746 mmHg 99%
    08:00 +16°C° 0.9 mm 2 mps 746 mmHg 99%
    09:00 +17°C° 1.6 mm 3 mps 745 mmHg 99%
    10:00 +17°C° 1.6 mm 3 mps 744 mmHg 99%
    11:00 +17°C° 1.6 mm 3 mps 743 mmHg 99%
    12:00 +18°C° 1.3 mm 4 mps 743 mmHg 99%
    13:00 +18°C° 1.3 mm 4 mps 742 mmHg 99%
    14:00 +18°C° 1.3 mm 4 mps 742 mmHg 99%
    15:00 +18°C° 1.3 mm 4 mps 741 mmHg 98%
    16:00 +18°C° 1.3 mm 4 mps 740 mmHg 98%
    17:00 +17°C° 1.3 mm 4 mps 739 mmHg 98%
    18:00 +17°C° 2 mm 4 mps 739 mmHg 98%
    19:00 +15°C° 2 mm 4 mps 739 mmHg 98%
    20:00 +15°C° 2 mm 4 mps 738 mmHg 98%
    21:00 +14°C° 1.8 mm 5 mps 739 mmHg 97%
    22:00 +14°C° 1.8 mm 7 mps 739 mmHg 97%
    23:00 +12°C° 1.8 mm 8 mps 739 mmHg 96%

    Tomorrow, 22 June, Saturday

    Time Temperature Precipitation Wind Pressure Humidity
    00:00 +12°C° 0.1 mm 8 mps 740 mmHg 95%
    01:00 +11°C° 0.1 mm 7 mps 740 mmHg 95%
    02:00 +11°C° 0.1 mm 7 mps 741 mmHg 94%
    03:00 +11°C° 0 mm 7 mps 741 mmHg 94%
    04:00 +11°C° 0 mm 7 mps 742 mmHg 93%
    05:00 +11°C° 0 mm 6 mps 743 mmHg 92%
    06:00 +11°C° 0 mm 6 mps 743 mmHg 88%
    07:00 +13°C° 0 mm 6 mps 744 mmHg 85%
    08:00 +13°C° 0 mm 6 mps 745 mmHg 82%
    09:00 +14°C° 0 mm 6 mps 745 mmHg 79%
    10:00 +14°C° 0 mm 5 mps 745 mmHg 77%
    11:00 +14°C° 0 mm 5 mps 745 mmHg 74%
    12:00 +15°C° 0.1 mm 5 mps 745 mmHg 74%
    13:00 +15°C° 0.1 mm 4 mps 746 mmHg 74%
    14:00 +17°C° 0.1 mm 4 mps 746 mmHg 74%
    15:00 +17°C° 0.3 mm 3 mps 746 mmHg 79%
    16:00 +16°C° 0.3 mm 3 mps 746 mmHg 84%
    17:00 +16°C° 0.3 mm 3 mps 746 mmHg 88%
    18:00 +15°C° 0.1 mm 2 mps 747 mmHg 89%
    19:00 +14°C° 0.1 mm 2 mps 747 mmHg 90%
    20:00 +13°C° 0.1 mm 2 mps 747 mmHg 91%
    21:00 +12°C° 0 mm 3 mps 747 mmHg 88%
    22:00 +13°C° 0 mm 4 mps 746 mmHg 85%
    23:00 +13°C° 0 mm 5 mps 746 mmHg 83%

    Day after tomorrow, 23 June, Sunday

    Time Temperature Precipitation Wind Pressure Humidity
    00:00 +13°C° 0 mm 5 mps 746 mmHg 81%
    01:00 +13°C° 0 mm 5 mps 746 mmHg 79%
    02:00 +12°C° 0 mm 4 mps 746 mmHg 77%
    03:00 +13°C° 0 mm 5 mps 746 mmHg 74%
    04:00 +14°C° 0 mm 5 mps 746 mmHg 70%
    05:00 +14°C° 0 mm 5 mps 745 mmHg 66%
    06:00 +15°C° 0 mm 5 mps 746 mmHg 63%
    07:00 +16°C° 0 mm 5 mps 746 mmHg 60%
    08:00 +19°C° 0 mm 5 mps 746 mmHg 57%
    09:00 +19°C° 0 mm 5 mps 746 mmHg 55%
    10:00 +20°C° 0 mm 5 mps 747 mmHg 53%
    11:00 +21°C° 0 mm 5 mps 747 mmHg 51%
    12:00 +20°C° 0.4 mm 5 mps 747 mmHg 61%
    13:00 +19°C° 0.4 mm 4 mps 747 mmHg 70%
    14:00 +18°C° 0.4 mm 4 mps 747 mmHg 79%
    15:00 +17°C° 0.5 mm 3 mps 747 mmHg 84%
    16:00 +16°C° 0.5 mm 3 mps 748 mmHg 88%
    17:00 +13°C° 0.5 mm 3 mps 748 mmHg 93%
    18:00 +14°C° 0.1 mm 2 mps 748 mmHg 93%
    19:00 +13°C° 0.1 mm 2 mps 749 mmHg 92%
    20:00 +13°C° 0.1 mm 2 mps 749 mmHg 92%
    21:00 +12°C° 0 mm 2 mps 750 mmHg 93%
    22:00 +10°C° 0 mm 2 mps 750 mmHg 93%
    23:00 +10°C° 0 mm 1 mps 750 mmHg 94%

    24 June, Monday

    Time Temperature Precipitation Wind Pressure Humidity
    00:00 +9°C° 0 mm 2 mps 750 mmHg 94%
    01:00 +9°C° 0 mm 2 mps 751 mmHg 94%
    02:00 +9°C° 0 mm 2 mps 751 mmHg 95%
    03:00 +9°C° 0 mm 3 mps 751 mmHg 94%
    04:00 +9°C° 0 mm 3 mps 751 mmHg 94%
    05:00 +8°C° 0 mm 4 mps 752 mmHg 93%
    06:00 +10°C° 0 mm 4 mps 752 mmHg 83%
    07:00 +12°C° 0 mm 4 mps 752 mmHg 73%
    08:00 +14°C° 0 mm 4 mps 752 mmHg 63%
    09:00 +15°C° 0 mm 4 mps 753 mmHg 59%
    10:00 +17°C° 0 mm 4 mps 753 mmHg 55%
    11:00 +17°C° 0 mm 5 mps 753 mmHg 50%
    12:00 +17°C° 0.1 mm 5 mps 753 mmHg 54%
    13:00 +16°C° 0.1 mm 5 mps 754 mmHg 58%
    14:00 +16°C° 0.1 mm 5 mps 754 mmHg 61%
    15:00 +17°C° 0.1 mm 4 mps 754 mmHg 60%
    16:00 +17°C° 0.1 mm 4 mps 754 mmHg 59%
    17:00 +17°C° 0.1 mm 4 mps 755 mmHg 58%
    18:00 +16°C° 0 mm 3 mps 755 mmHg 63%
    19:00 +15°C° 0 mm 2 mps 755 mmHg 69%
    20:00 +13°C° 0 mm 2 mps 756 mmHg 74%
    21:00 +12°C° 0 mm 2 mps 756 mmHg 77%
    22:00 +10°C° 0 mm 2 mps 757 mmHg 79%
    23:00 +9°C° 0 mm 2 mps 757 mmHg 82%

    25 June, Tuesday

    Time Temperature Precipitation Wind Pressure Humidity
    00:00 +9°C° 0 mm 2 mps 757 mmHg 82%
    01:00 +9°C° 0 mm 3 mps 757 mmHg 81%
    02:00 +8°C° 0 mm 3 mps 757 mmHg 81%
    03:00 +8°C° 0 mm 3 mps 757 mmHg 81%
    04:00 +8°C° 0 mm 2 mps 758 mmHg 81%
    05:00 +8°C° 0 mm 2 mps 758 mmHg 81%
    06:00 +12°C° 0 mm 2 mps 759 mmHg 73%
    07:00 +14°C° 0 mm 2 mps 759 mmHg 64%
    08:00 +17°C° 0 mm 2 mps 759 mmHg 55%
    09:00 +19°C° 0 mm 2 mps 759 mmHg 51%
    10:00 +20°C° 0 mm 2 mps 759 mmHg 46%
    11:00 +23°C° 0 mm 2 mps 759 mmHg 42%
    12:00 +22°C° 0 mm 3 mps 759 mmHg 41%
    13:00 +24°C° 0 mm 3 mps 759 mmHg 41%
    14:00 +23°C° 0 mm 4 mps 759 mmHg 40%
    15:00 +22°C° 0 mm 4 mps 759 mmHg 45%
    16:00 +21°C° 0 mm 4 mps 759 mmHg 49%
    17:00 +19°C° 0 mm 5 mps 759 mmHg 53%
    18:00 +17°C° 0 mm 4 mps 760 mmHg 63%
    19:00 +14°C° 0 mm 4 mps 760 mmHg 72%
    20:00 +12°C° 0 mm 3 mps 760 mmHg 81%
    21:00 +12°C° 0.1 mm 3 mps 760 mmHg 82%
    22:00 +13°C° 0.1 mm 3 mps 760 mmHg 83%
    23:00 +13°C° 0.1 mm 3 mps 760 mmHg 84%

    26 June, Wednesday

    Time Temperature Precipitation Wind Pressure Humidity
    00:00 +12°C° 1.1 mm 3 mps 760 mmHg 89%
    01:00 +12°C° 1.1 mm 3 mps 760 mmHg 94%
    02:00 +12°C° 1.1 mm 2 mps 759 mmHg 98%
    03:00 +11°C° 1.4 mm 3 mps 759 mmHg 98%
    04:00 +11°C° 1.4 mm 3 mps 759 mmHg 98%
    05:00 +12°C° 1.4 mm 3 mps 760 mmHg 98%
    06:00 +12°C° 0.5 mm 4 mps 759 mmHg 98%
    07:00 +12°C° 0.5 mm 5 mps 759 mmHg 98%
    08:00 +11°C° 0.5 mm 6 mps 759 mmHg 97%
    09:00 +13°C° 0.1 mm 6 mps 759 mmHg 97%
    10:00 +13°C° 0.1 mm 5 mps 759 mmHg 97%
    11:00 +14°C° 0.1 mm 5 mps 758 mmHg 97%
    12:00 +14°C° 0 mm 4 mps 758 mmHg 95%
    13:00 +15°C° 0 mm 4 mps 758 mmHg 93%
    14:00 +17°C° 0 mm 3 mps 757 mmHg 91%
    15:00 +18°C° 0 mm 3 mps 757 mmHg 89%
    16:00 +19°C° 0 mm 2 mps 757 mmHg 87%
    17:00 +19°C° 0 mm 2 mps 757 mmHg 85%
    18:00 +19°C° 0 mm 1 mps 757 mmHg 89%
    19:00 +18°C° 0 mm 1 mps 757 mmHg 93%
    20:00 +18°C° 0 mm 1 mps 757 mmHg 98%
    21:00 +16°C° 0 mm 1 mps 757 mmHg 98%
    22:00 +16°C° 0 mm 1 mps 758 mmHg 98%
    23:00 +16°C° 0 mm 1 mps 758 mmHg 98%
    Show more